Wind_Speed
15 16 16 15 15 15 15 15 15 15 15 14 15 14 14 14 14 14 14 15 14 14 14 14 14 14 14 14 15 16 16 15 14 14 14 13 13 13 13 12 11 12 12 11 12 12 11 11 11 11 11 11 11 11 12 12 13 13 12 11 11 12 12 11 11 10 10 11 11 11 12 12 12 11 11 12 12 12 13 14 14 13 13 13 13
15 15 15 14 14 14 15 16 16 16 15 15 15 15 15 15 15 15 15 15 15 15 15 15 15 15 15 15 15 16 16 15 15 16 15 14 13 13 14 13 12 12 12 12 12 12 12 12 11 11 12 12 11 11 11 11 12 13 12 10 9 10 11 11 11 10 11 11 11 11 12 13 13 12 12 12 13 13 13 14 14 13 12 11 14
17 16 13 13 14 15 15 17 17 17 16 16 16 15 15 15 16 16 16 16 16 16 16 16 17 16 16 16 17 17 17 16 16 16 16 15 14 14 15 15 14 14 13 13 12 13 13 12 12 12 12 12 12 11 11 11 11 12 13 12 11 11 11 12 11 12 13 12 12 12 13 13 14 14 14 14 14 14 14 14 13 13 12 12 14
22 20 15 13 15 15 16 17 17 18 18 17 17 17 16 16 16 17 17 17 17 17 17 17 18 18 17 17 18 17 17 17 17 17 17 17 16 16 16 16 16 15 14 13 13 14 14 12 12 13 13 13 13 12 12 12 12 12 13 13 12 12 13 13 13 14 15 14 14 14 14 15 15 15 16 16 16 16 15 14 14 14 13 13 14
22 20 16 15 16 16 17 18 18 18 19 19 19 19 18 18 18 17 17 17 17 18 18 18 18 19 18 18 19 18 18 18 18 18 18 18 17 17 17 18 17 17 16 15 15 15 14 14 13 14 14 13 14 13 13 13 13 13 14 14 14 14 14 15 15 15 16 16 16 16 16 17 17 17 17 17 18 18 18 17 15 15 15 14 15
23 22 18 16 17 18 19 19 19 20 21 21 21 21 20 19 20 19 18 18 18 18 18 18 18 18 18 19 19 19 20 20 20 19 19 19 18 17 18 19 18 18 17 16 17 16 16 15 15 15 15 14 15 15 15 15 15 15 15 16 16 16 16 16 16 17 17 17 18 17 18 19 19 19 20 20 18 19 20 19 18 16 15 15 15
24 23 20 18 19 20 21 21 22 22 22 22 22 22 21 20 20 21 21 20 20 20 19 19 19 19 19 19 20 21 22 21 21 21 19 19 20 19 19 20 19 19 18 18 18 18 18 17 16 16 17 17 17 17 17 17 17 17 17 18 18 18 18 18 18 19 19 19 19 18 19 21 21 22 24 23 20 20 21 22 22 20 15 14 16
23 23 21 20 20 21 23 23 23 23 22 23 23 24 25 22 20 22 22 22 21 20 20 20 20 19 19 20 21 22 23 23 23 23 21 21 21 20 20 20 20 20 19 19 19 20 20 20 17 17 18 18 17 17 18 18 18 19 19 20 21 22 21 19 19 22 21 19 19 21 22 23 23 24 26 26 23 23 25 26 27 24 16 11 14
24 22 22 22 22 23 24 23 22 23 23 24 24 26 28 25 21 22 23 23 23 21 21 21 21 20 20 21 22 23 24 25 25 24 23 23 23 23 23 21 20 20 20 20 20 20 22 21 20 20 21 19 18 18 18 19 20 21 21 22 24 25 24 22 22 25 24 20 20 22 24 25 25 25 25 26 25 24 25 27 27 25 17 12 15
23 22 22 24 25 23 23 22 22 23 24 24 25 26 27 26 24 24 25 25 23 22 22 22 21 22 21 21 24 26 26 25 25 24 23 22 23 25 24 22 21 21 21 22 21 20 21 21 22 24 24 23 22 20 20 21 21 22 23 24 25 26 27 26 25 27 26 24 23 24 24 24 26 26 24 25 26 25 25 25 25 26 20 14 17
22 23 24 26 25 22 22 23 23 25 26 26 26 25 25 27 28 27 27 27 24 24 26 24 22 23 23 23 27 29 26 23 23 24 24 23 24 24 23 23 23 23 23 24 23 21 21 22 23 26 26 26 25 21 20 22 22 23 24 25 27 28 29 29 28 28 28 28 27 27 25 25 27 27 25 25 27 26 25 24 25 27 23 17 18
22 24 26 27 26 22 22 23 24 26 27 27 27 27 27 27 29 29 30 29 28 28 28 26 24 25 25 26 28 29 26 25 25 25 25 25 25 25 25 25 25 25 25 24 23 23 23 24 26 28 28 28 26 22 21 23 23 23 24 25 27 28 29 29 29 30 30 31 31 30 28 27 29 29 27 27 28 27 26 26 27 29 26 19 19
23 25 26 27 27 25 25 25 26 28 29 29 29 30 30 29 30 31 32 32 31 28 27 27 27 28 28 29 29 29 28 27 28 27 26 26 25 25 26 26 27 29 29 26 24 25 26 26 27 28 29 29 26 23 23 25 25 25 25 26 27 27 27 28 29 29 30 30 31 31 29 29 30 30 29 29 30 27 27 28 28 29 27 22 20
23 24 24 25 24 24 25 26 27 28 30 30 31 31 31 31 31 33 34 35 33 28 26 27 28 29 30 30 30 30 30 29 29 30 30 29 28 27 27 27 28 30 31 29 26 26 27 28 29 29 30 30 27 25 26 27 28 27 26 27 27 27 27 28 28 30 30 29 30 30 29 29 30 30 29 30 31 30 29 29 27 27 29 26 24
24 24 24 24 25 25 25 25 26 26 27 29 30 32 32 31 32 34 36 35 33 30 27 27 27 28 28 28 29 30 30 30 30 31 31 31 31 30 29 29 30 31 33 32 30 28 29 31 31 31 31 30 26 26 28 29 29 29 29 29 28 28 29 29 29 30 30 30 31 30 29 28 29 29 29 31 32 32 31 30 28 29 31 29 27
25 24 24 24 25 24 24 24 24 23 24 25 27 29 31 31 32 35 36 35 33 31 28 26 27 27 27 28 29 28 28 30 31 31 30 30 32 32 31 31 32 33 33 34 33 32 33 34 34 31 29 27 27 28 30 30 30 30 32 33 32 32 32 31 31 32 32 32 32 31 30 30 30 30 30 31 32 33 32 31 30 31 33 32 29
20 20 21 21 20 20 19 20 21 20 19 20 22 24 27 29 31 32 33 34 33 31 27 25 25 26 28 29 29 29 28 29 29 30 30 29 30 32 34 34 34 33 33 33 34 33 33 35 35 33 30 28 28 29 31 32 32 33 34 36 35 35 35 35 35 36 35 34 34 34 33 32 32 32 32 33 33 34 34 33 30 31 35 34 31
16 17 17 16 15 15 15 16 17 17 18 18 18 18 19 21 23 23 23 25 26 25 23 23 24 27 30 32 33 34 32 29 28 28 28 27 27 29 32 35 34 33 31 32 34 33 33 33 34 34 34 32 31 32 33 33 34 34 35 36 36 35 35 36 37 38 37 37 36 36 36 36 37 37 37 36 37 38 38 36 33 34 36 33 31
14 13 12 12 12 13 13 14 14 15 16 15 14 13 14 15 16 17 17 18 20 21 21 22 24 28 31 33 32 30 27 27 30 31 29 28 27 29 33 34 33 31 30 31 33 34 33 34 34 34 35 35 34 35 35 35 35 35 34 35 36 36 35 35 35 36 37 37 36 35 36 38 38 39 39 38 38 40 40 38 35 36 36 34 33
10 10 11 12 12 12 11 12 11 12 12 10 9 11 13 12 12 14 15 16 19 23 24 23 24 26 30 33 32 29 28 31 34 35 34 33 30 29 31 30 28 28 29 30 32 33 32 33 34 34 34 34 34 34 34 34 35 35 35 35 36 36 36 35 35 35 35 36 35 35 36 36 36 36 38 38 38 39 38 37 38 37 36 36 35
8 9 10 10 9 8 7 6 6 6 7 6 5 6 7 8 9 11 13 15 18 21 23 24 25 25 27 28 28 29 30 30 31 31 31 33 31 29 28 27 26 27 28 28 28 27 28 30 31 32 33 34 34 35 34 34 34 35 35 36 37 37 36 35 35 35 36 36 36 37 37 37 34 34 36 38 37 37 38 38 39 39 37 37 37
5 6 6 5 5 6 5 4 3 3 4 5 5 5 4 4 4 6 8 9 10 12 14 16 18 20 23 25 27 28 29 29 29 30 30 30 29 28 26 25 25 26 27 27 27 26 27 29 30 31 32 34 35 36 37 37 37 36 36 37 37 37 36 35 35 35 35 36 36 36 35 35 33 32 34 36 35 36 38 40 40 39 36 35 35
6 6 6 6 6 5 4 3 3 3 4 4 4 3 3 3 3 2 3 4 5 5 6 6 7 8 12 16 20 23 25 26 27 30 32 32 30 29 28 27 27 27 28 28 28 28 29 30 30 31 32 34 36 37 38 39 38 37 36 35 34 34 34 33 33 32 33 32 32 32 31 31 31 30 31 34 35 36 38 40 40 37 33 31 30
6 7 8 8 7 6 5 4 4 3 4 5 5 5 5 6 6 6 7 8 8 8 7 8 8 8 7 7 8 10 11 13 15 17 20 23 25 27 28 28 29 30 31 32 30 28 28 29 29 29 31 33 35 35 34 34 34 33 31 31 30 30 30 29 29 29 29 29 29 28 28 28 28 27 28 31 34 36 37 36 34 31 29 29 29
3 4 6 7 8 7 6 6 6 6 6 7 8 9 10 10 11 11 12 12 13 12 13 13 13 13 12 12 12 12 13 15 15 16 16 17 18 19 20 22 23 24 26 27 27 27 27 28 29 30 30 31 32 31 28 28 28 28 28 27 27 27 26 27 27 26 26 26 27 26 26 26 26 26 27 29 33 35 34 30 27 26 27 28 28
2 2 3 4 5 6 6 7 7 7 7 8 8 9 9 10 11 11 12 13 14 15 15 16 15 16 16 17 18 19 20 21 21 21 21 20 20 20 20 21 22 22 23 23 24 25 27 27 27 28 28 28 29 27 26 25 24 24 24 25 24 23 24 25 25 25 25 24 24 24 24 24 24 24 25 26 29 31 30 27 25 24 24 26 27
2 2 2 3 4 4 5 6 5 6 6 7 7 7 7 8 8 8 9 10 11 12 13 13 14 14 15 16 17 18 19 19 19 19 19 18 18 18 19 20 21 22 23 24 24 24 25 25 24 23 23 24 24 24 25 25 23 21 22 23 22 20 21 22 22 23 23 23 22 23 22 23 23 23 24 24 26 27 27 26 24 23 24 26 27
2 2 2 3 3 4 5 5 5 6 6 7 7 7 7 8 8 8 8 9 9 9 10 10 11 11 12 12 13 13 14 14 14 15 15 15 15 14 14 15 16 17 17 18 18 18 18 18 18 18 19 19 19 20 22 23 22 20 21 23 22 20 19 20 20 20 21 21 20 20 21 21 22 22 23 23 24 25 24 24 23 23 24 25 26
2 2 3 3 4 4 5 6 6 6 7 7 8 8 8 8 8 8 9 9 9 9 9 10 10 10 11 11 11 12 12 12 12 13 13 13 13 13 12 12 12 12 13 13 14 14 14 15 15 15 16 16 17 18 19 19 19 19 19 20 21 20 19 19 19 19 20 19 19 18 18 19 20 21 22 22 23 23 21 20 21 21 22 23 23
3 3 4 4 5 5 6 6 7 7 7 8 9 9 9 10 10 10 10 10 10 10 10 11 11 11 12 12 12 13 13 13 13 14 14 14 14 14 14 14 13 13 14 14 14 15 15 16 16 16 16 16 17 17 17 18 19 19 18 19 21 20 19 20 19 19 20 19 19 17 16 16 17 17 18 18 18 17 17 17 17 18 20 20 20
6 6 6 7 7 7 8 8 9 9 9 9 9 10 10 11 11 11 11 11 11 12 12 12 13 13 13 14 14 14 14 14 15 15 15 15 16 15 16 16 16 16 16 16 16 16 16 17 17 18 19 19 19 18 19 19 20 20 20 20 21 21 20 20 19 19 19 19 19 17 16 15 15 14 15 15 15 15 16 16 16 17 17 18 18
8 8 9 9 9 10 10 10 10 10 11 11 11 11 11 11 12 12 12 12 12 13 13 13 14 14 14 15 15 15 16 16 16 17 17 17 17 17 18 18 18 18 18 18 18 18 18 18 18 18 19 20 20 20 20 21 21 22 22 22 21 21 21 21 20 19 19 18 17 16 15 14 14 14 14 14 14 15 16 17 17 18 19 21 22
10 10 10 10 10 11 11 11 11 12 12 12 12 12 12 13 13 13 13 13 13 14 14 14 15 15 15 16 16 16 17 17 18 18 18 18 18 19 19 19 19 19 20 20 20 20 20 19 19 19 19 20 21 21 21 22 22 23 23 23 22 22 21 21 20 20 19 18 18 17 16 16 16 17 17 17 18 19 21 22 23 24 25 27 28
12 13 13 13 13 13 13 13 13 13 13 13 13 13 13 13 13 13 14 14 14 15 15 15 16 17 17 17 18 18 19 19 19 19 20 20 20 20 20 21 20 20 20 21 21 21 21 21 21 21 21 21 22 22 22 22 22 22 23 23 23 23 22 21 20 19 19 19 19 19 20 21 21 22 23 24 25 25 26 27 27 28 28 27 26
14 15 15 15 16 16 16 15 15 15 14 13 13 13 13 13 14 14 14 14 14 13 14 15 16 17 17 18 19 20 20 20 21 21 21 21 22 22 22 22 22 21 21 21 21 22 22 22 22 22 22 22 22 22 22 22 22 22 22 22 22 22 22 22 21 21 21 21 21 22 23 23 24 25 26 27 27 28 28 28 28 27 27 26 24
15 16 16 16 16 16 17 17 16 16 16 15 14 14 14 14 13 13 12 13 13 12 13 15 16 17 18 19 20 21 22 22 23 23 23 23 23 23 23 24 24 23 23 23 23 23 23 24 24 24 24 24 24 24 24 24 23 23 23 22 22 22 22 23 23 23 23 24 24 24 25 26 26 27 28 29 29 30 30 30 30 28 28 27 26
15 16 16 16 16 16 18 18 17 17 17 17 16 16 16 15 14 12 11 11 12 12 13 15 16 17 19 20 21 21 21 22 22 23 24 24 24 24 25 25 25 25 25 25 25 25 25 25 26 26 27 27 27 27 27 26 26 26 25 25 25 25 24 24 25 25 26 27 27 27 28 29 29 29 30 31 32 32 33 33 33 32 31 30 30
17 17 17 17 16 16 18 18 18 18 17 17 17 17 17 17 17 16 14 13 14 14 15 15 16 17 19 20 21 20 20 21 22 23 24 24 24 24 25 25 25 26 27 27 27 28 28 28 27 28 29 29 29 29 29 29 29 29 28 28 29 29 28 28 28 28 28 29 30 30 30 31 31 32 32 33 33 34 34 34 34 34 34 33 33
18 18 17 16 17 17 17 17 18 18 17 16 17 17 17 18 18 17 15 14 14 14 15 15 15 16 18 21 22 22 22 21 21 22 23 25 26 26 27 27 28 28 27 27 27 28 29 30 30 30 31 31 31 30 31 31 31 31 31 31 31 32 33 32 32 32 32 32 33 33 33 33 33 33 33 33 33 34 34 34 35 35 35 34 34
18 18 17 15 16 17 17 17 18 18 18 18 18 19 19 19 18 16 15 14 13 12 12 12 15 18 20 21 22 23 23 23 23 23 25 28 30 31 30 31 31 31 31 30 29 28 29 30 31 32 33 33 32 33 33 34 33 34 34 33 32 33 35 35 35 35 35 35 35 36 36 36 36 35 35 35 35 35 35 35 35 35 35 35 35
17 18 18 16 16 16 17 17 18 20 20 19 19 19 18 18 18 17 16 16 16 15 13 12 15 20 23 24 25 27 27 27 27 27 27 29 31 33 32 32 33 34 33 33 32 32 30 30 30 32 32 30 29 30 31 31 31 33 34 34 34 35 35 35 35 36 37 36 36 36 37 38 37 37 36 36 36 35 35 35 36 35 35 35 35
16 18 18 17 17 17 17 18 19 20 19 18 18 18 18 17 17 18 18 18 19 19 17 15 16 21 24 24 25 27 27 27 27 28 27 28 29 30 30 31 33 34 33 32 33 33 32 31 31 32 32 29 26 25 26 27 28 29 30 31 33 34 35 35 35 36 37 37 37 37 37 37 36 36 36 36 35 35 35 35 35 35 35 35 35
17 17 18 18 17 17 17 18 18 18 18 18 18 18 18 17 17 18 19 18 18 20 20 19 20 23 25 25 25 26 26 26 27 27 26 26 27 27 27 29 32 35 36 35 35 35 33 31 31 32 33 31 28 26 26 27 27 27 27 28 30 31 33 34 35 35 35 36 37 37 36 36 35 34 35 35 35 34 34 34 35 35 35 35 35
17 17 17 17 17 17 17 17 17 17 18 18 17 16 17 18 18 19 19 18 17 18 19 20 21 22 23 24 25 26 26 26 27 26 26 26 26 26 27 31 34 36 36 36 36 36 34 32 32 31 32 32 32 31 31 31 30 30 30 30 31 33 34 35 35 35 34 35 35 35 35 35 34 33 34 34 34 35 34 34 34 34 35 35 34
16 16 16 16 16 15 15 15 16 17 16 15 14 13 13 14 14 16 18 18 18 18 18 18 19 21 22 23 24 25 25 26 26 26 26 26 25 26 28 32 35 36 35 35 36 36 35 35 34 32 32 33 34 34 35 34 34 35 36 35 35 35 35 35 35 35 35 35 35 34 34 34 33 33 33 33 34 34 34 34 34 34 34 35 35
16 15 14 12 12 12 13 13 15 15 14 13 12 10 9 9 10 12 15 16 17 17 17 18 20 21 22 23 24 25 25 26 26 27 27 27 26 27 29 32 35 35 34 34 35 36 36 36 36 35 34 35 36 36 37 36 36 38 39 38 38 37 36 36 36 36 36 36 36 35 34 34 33 33 33 33 33 33 34 34 34 34 35 35 35
16 15 14 12 12 13 14 14 14 14 14 12 11 11 11 12 13 14 15 15 15 15 16 18 20 22 22 23 24 25 26 27 27 27 28 28 28 29 31 32 33 33 33 33 34 35 36 37 37 36 35 35 35 35 36 36 36 37 38 38 38 37 36 36 36 36 37 37 37 36 35 34 33 33 33 33 33 34 34 35 35 35 35 35 35
15 14 13 13 13 13 12 11 11 11 11 11 11 12 12 12 13 14 14 14 15 16 17 18 19 21 22 23 24 25 26 27 27 27 28 29 30 31 32 32 32 32 32 32 33 36 38 38 38 36 35 34 34 34 34 34 35 36 36 35 34 34 34 34 34 34 34 35 36 35 34 33 33 32 32 33 33 34 34 35 35 35 35 34 34
14 13 12 12 12 12 11 11 11 11 11 11 11 11 12 12 12 11 12 14 16 18 19 20 20 21 22 23 24 24 24 25 26 27 28 29 30 31 32 32 32 31 31 32 33 35 36 37 37 36 35 34 33 34 34 33 34 34 33 32 32 32 32 31 31 31 31 31 31 32 31 31 31 32 31 32 32 32 32 33 33 33 33 33 32
14 13 12 11 10 10 11 12 11 11 11 11 9 9 11 11 10 10 11 14 15 16 17 19 21 22 22 23 24 24 24 25 26 27 28 29 29 29 30 31 31 31 31 31 31 31 32 33 34 34 33 33 32 32 32 32 32 31 30 30 30 30 29 28 28 28 28 28 28 28 29 29 30 30 30 30 31 30 30 30 30 30 31 30 30
13 13 12 11 11 10 11 11 9 8 10 11 10 8 9 10 11 11 13 16 15 14 16 19 20 20 21 23 24 24 24 25 26 27 28 29 29 29 29 29 30 30 30 30 29 29 30 31 31 32 32 32 32 32 31 31 31 30 29 29 29 29 28 27 27 27 26 26 26 27 27 28 28 28 29 29 29 29 29 28 28 28 28 27 27
Wind_Direction
208 209 212 214 219 221 221 222 222 224 226 228 231 233 235 235 236 237 238 241 242 241 240 240 242 243 243 246 248 250 251 250 251 252 250 251 252 253 255 253 249 252 255 254 256 259 261 260 262 267 270 271 272 273 275 278 282 279 272 272 280 284 285 285 282 283 285 282 283 284 286 289 292 294 292 296 303 304 306 311 314 319 324 327 329
219 214 210 213 221 225 227 228 227 227 228 230 231 233 234 234 235 237 239 242 244 244 244 243 243 243 244 246 247 251 253 253 255 257 257 256 254 252 254 254 251 250 252 254 254 256 259 261 263 267 271 272 270 269 269 273 280 281 277 278 284 285 286 286 282 284 286 281 279 279 279 283 285 285 287 291 295 297 300 306 310 317 324 323 318
231 229 216 213 220 224 228 231 231 231 232 234 234 234 234 234 234 235 238 240 243 245 246 247 248 247 247 248 248 251 254 254 255 257 259 259 256 254 254 254 253 251 250 252 253 254 256 257 261 264 266 268 267 267 266 266 271 278 281 285 286 282 281 282 281 283 284 280 278 278 279 282 283 284 286 287 287 289 292 298 306 311 314 312 307
227 232 223 217 221 223 227 233 235 236 235 237 240 240 238 237 237 236 236 237 240 243 244 247 250 251 251 252 252 253 254 256 256 257 260 260 258 258 258 257 259 258 256 255 254 255 255 256 259 261 263 264 264 264 264 264 265 267 271 275 278 278 278 278 278 277 278 279 279 277 277 280 281 281 284 285 285 286 286 291 298 301 303 305 301
223 230 225 221 226 228 229 230 232 236 238 238 239 242 243 243 242 240 239 239 240 242 244 246 250 254 255 255 256 256 256 256 256 257 259 261 260 261 262 263 264 262 261 260 257 257 257 257 259 260 263 265 265 263 262 262 262 262 265 268 269 270 269 271 274 275 276 279 278 278 278 278 278 279 280 281 284 286 285 286 291 293 296 298 297
228 232 232 231 235 239 239 235 232 234 236 236 235 237 240 242 245 244 243 242 242 244 246 247 250 254 257 258 258 259 257 254 255 256 258 261 262 262 262 263 263 261 259 258 258 257 257 258 259 260 260 262 264 264 261 259 259 260 263 265 267 268 269 270 271 272 274 276 277 280 283 281 280 280 279 276 277 281 281 280 281 284 288 293 293
234 238 242 241 241 245 248 248 244 239 238 239 239 238 237 236 239 244 246 245 244 246 247 249 251 253 256 258 259 259 258 255 255 255 254 256 257 259 261 263 263 261 258 257 259 258 254 253 254 256 258 258 258 262 264 262 261 261 260 261 261 262 262 264 268 271 273 277 281 283 283 283 284 284 285 285 286 289 288 284 279 273 273 286 291
236 240 245 248 247 247 250 253 255 256 253 247 244 246 244 237 230 233 239 243 244 247 249 249 252 254 254 257 258 259 261 261 259 255 254 254 253 253 254 256 259 263 264 265 265 265 263 261 257 257 259 257 255 261 268 267 267 267 267 268 268 266 263 262 265 268 269 273 280 283 284 286 287 287 288 292 295 295 294 291 284 275 270 282 293
241 243 249 255 253 251 255 259 263 268 266 256 254 258 256 248 239 234 235 236 236 241 247 248 250 251 252 256 259 258 259 261 262 261 260 261 261 260 257 255 258 264 267 266 264 266 270 271 267 265 266 265 263 265 267 268 269 270 271 273 274 275 277 275 271 271 274 275 277 280 283 287 289 288 288 290 294 295 295 295 290 284 287 300 300
248 251 255 258 255 254 261 265 264 265 264 260 263 267 262 255 253 251 248 244 235 232 239 245 248 251 252 256 260 257 255 257 261 264 264 265 268 270 269 265 261 263 264 263 264 266 269 270 269 268 270 270 267 264 266 270 272 274 275 277 277 278 280 281 280 281 283 283 279 278 280 284 285 285 286 288 292 294 294 295 289 283 289 303 300
253 254 256 258 259 258 261 264 265 266 262 258 259 264 264 260 259 258 260 262 254 244 239 237 239 245 247 249 254 256 256 258 260 262 263 265 266 269 271 268 265 265 264 264 268 272 273 273 272 271 272 271 267 264 266 271 272 273 274 277 280 281 283 285 285 284 284 284 282 279 278 278 279 281 283 284 287 289 290 291 287 284 290 302 300
259 259 260 263 268 268 265 265 267 267 265 262 259 260 262 262 260 256 257 263 264 260 255 247 242 244 244 244 249 255 260 263 264 263 263 265 266 267 268 267 268 268 266 266 270 274 276 276 276 277 277 273 269 269 272 273 275 274 273 274 276 278 281 284 285 284 283 282 281 278 277 277 278 281 283 281 282 284 287 290 290 288 291 297 296
265 263 264 268 273 275 273 272 271 269 268 267 263 260 259 259 259 257 257 260 262 264 266 262 254 251 250 249 251 256 261 264 267 268 269 268 267 267 268 269 269 271 271 270 272 273 274 275 277 282 281 273 269 274 278 278 278 278 276 276 276 276 278 282 284 285 284 282 280 279 278 278 279 281 281 281 283 285 286 287 288 289 291 292 292
265 266 268 270 273 274 274 272 271 270 270 268 264 261 258 255 254 253 254 258 259 259 263 265 261 259 259 257 257 260 262 263 266 270 271 269 268 267 268 269 269 271 271 269 268 270 273 277 278 279 277 274 275 281 283 283 283 283 281 279 278 277 278 280 282 284 285 286 286 285 281 279 281 283 281 281 284 286 285 286 286 287 288 289 288
266 271 274 277 277 276 275 273 271 272 272 270 266 261 257 254 252 251 250 252 254 256 258 262 264 263 261 260 261 264 267 268 269 270 270 269 270 269 267 267 268 270 273 275 275 275 274 274 272 269 269 273 279 282 285 287 288 287 286 284 282 282 282 283 284 285 286 288 290 288 285 283 283 283 280 280 284 286 286 286 286 283 281 281 283
269 273 275 276 278 279 278 275 271 268 269 271 268 263 258 254 252 252 251 250 251 254 256 258 261 263 261 261 262 265 268 270 271 271 271 271 272 271 269 269 270 271 275 279 280 279 278 278 276 273 272 277 281 283 286 288 289 289 289 288 287 286 284 284 284 284 284 286 287 288 287 287 286 285 282 280 283 286 285 285 287 285 281 282 285
268 272 273 275 276 278 277 272 267 266 270 275 274 267 259 255 253 253 253 253 253 253 255 256 258 261 262 262 264 266 268 271 272 271 271 274 276 274 272 271 271 271 273 277 277 277 280 283 286 286 286 285 285 286 286 287 289 289 289 289 289 288 287 285 283 282 282 283 284 285 286 286 285 285 285 284 284 284 284 284 284 282 280 283 287
269 272 275 278 278 278 276 271 270 274 273 271 273 272 262 255 258 258 255 254 253 252 252 254 258 263 264 266 269 268 265 267 271 271 271 276 279 277 274 272 271 271 272 274 275 276 278 280 283 287 289 289 288 287 287 287 288 289 289 289 290 290 290 289 285 282 281 279 280 282 284 284 284 284 285 285 284 283 283 282 280 278 277 280 282
272 274 277 279 279 279 278 277 279 283 276 263 260 267 260 251 255 258 254 252 256 260 263 263 263 265 265 265 266 264 262 265 267 267 269 274 276 275 272 270 270 271 271 272 274 276 278 280 282 285 288 290 290 288 286 286 287 288 288 288 288 290 292 293 291 288 285 284 284 285 285 285 285 285 285 284 283 282 281 280 278 278 279 280 281
275 273 269 268 270 272 277 280 280 284 286 272 244 240 245 248 254 260 261 261 263 266 269 269 268 267 265 263 263 265 269 270 266 264 265 268 269 271 271 269 270 271 272 274 275 274 276 281 284 286 290 293 294 292 288 286 286 287 287 288 289 290 290 291 292 292 291 291 291 290 288 286 286 287 287 286 284 282 281 279 278 279 279 279 280
279 267 256 256 262 265 272 276 270 277 299 301 275 254 259 265 266 269 274 275 272 269 268 267 267 266 263 261 262 265 267 266 262 261 264 264 265 269 272 274 274 272 272 277 280 280 280 283 285 289 293 295 295 294 291 288 287 288 290 291 291 290 290 289 289 289 290 291 291 290 290 289 288 287 285 284 282 280 279 278 279 280 278 275 276
277 257 245 253 270 275 278 280 280 288 302 309 314 329 336 320 298 290 288 287 284 278 273 271 269 268 265 263 263 263 263 262 261 262 264 264 262 265 270 273 274 274 274 277 282 284 284 286 288 292 294 295 295 294 293 291 290 291 292 292 291 290 289 289 288 287 288 288 289 289 289 289 288 284 280 280 279 278 277 276 275 275 273 270 272
255 245 243 259 274 282 290 302 307 305 309 311 314 328 350 4 8 349 324 316 315 314 311 311 307 295 280 270 266 265 266 268 268 267 265 263 261 264 268 272 274 277 280 283 287 289 290 291 291 292 294 296 297 295 293 292 293 293 293 293 291 290 290 290 289 289 289 288 289 289 289 289 289 287 282 281 281 281 280 276 273 273 271 270 273
247 243 242 248 259 270 284 301 306 303 306 309 306 304 309 312 308 304 303 305 308 310 313 315 314 310 306 296 285 279 278 281 285 281 273 268 268 270 272 274 276 278 278 280 282 286 290 291 289 288 291 295 297 296 293 292 292 292 292 292 291 291 291 291 291 290 290 290 291 291 291 292 292 290 284 280 280 281 280 276 272 273 275 277 277
248 250 244 245 253 263 275 284 287 288 290 293 293 294 296 297 297 297 296 295 295 295 294 294 293 290 288 287 284 282 281 282 286 286 283 280 281 280 277 276 279 279 278 277 277 280 286 290 289 288 290 293 295 296 296 294 293 292 292 292 291 292 291 290 290 290 289 290 290 290 291 293 294 292 287 282 279 279 279 277 274 276 280 281 277
231 242 243 246 255 266 275 281 287 293 296 296 296 296 296 297 298 298 297 295 294 292 289 288 286 282 279 278 278 279 280 282 283 283 281 279 278 277 274 273 273 273 274 275 276 279 283 286 287 288 289 291 294 296 297 297 297 297 296 294 294 294 293 292 292 292 291 291 291 290 290 292 295 295 292 287 283 282 282 283 281 279 278 275 270
241 243 244 253 261 269 280 289 298 303 304 305 306 307 307 307 307 306 304 301 298 296 296 294 291 288 285 283 283 283 283 284 286 287 288 287 284 281 278 275 273 272 272 274 275 277 279 282 285 287 288 291 294 296 296 297 299 302 301 300 301 302 300 298 297 296 295 295 294 293 293 294 296 297 294 290 287 287 287 285 282 277 273 270 268
267 274 278 281 284 286 291 298 302 304 307 310 311 312 313 313 313 311 309 307 305 304 304 302 300 299 296 293 293 293 292 292 293 293 294 294 294 293 289 285 283 282 282 283 284 285 286 288 289 290 291 293 294 295 297 300 304 309 310 308 308 310 309 306 304 301 298 297 296 295 295 296 296 296 294 292 290 289 287 284 279 274 271 269 268
264 274 280 285 290 292 294 296 298 300 303 304 303 304 306 305 305 305 303 303 303 302 302 303 302 300 300 299 298 297 297 297 296 296 297 297 298 299 298 297 296 295 295 296 296 296 297 296 295 296 296 297 298 299 303 307 309 311 313 312 312 314 314 312 311 309 305 303 301 298 296 296 296 296 296 295 294 291 287 282 277 274 273 272 271
271 278 282 284 286 287 286 286 287 287 288 290 291 292 293 293 294 295 294 294 294 293 294 295 295 295 296 296 295 295 295 295 294 294 294 294 293 293 294 294 294 294 294 295 296 298 299 299 299 300 300 299 300 302 304 305 305 306 308 310 311 312 313 312 313 313 312 310 307 303 299 296 296 296 294 291 286 280 273 269 268 269 269 270 270
278 280 283 284 285 286 285 284 284 284 283 282 282 283 285 287 288 288 289 291 292 292 292 290 289 290 290 289 290 290 290 289 289 289 289 290 290 290 291 292 292 292 292 292 293 294 295 296 298 300 300 300 301 302 301 300 301 302 304 305 306 308 309 310 310 310 309 308 307 304 300 295 291 286 281 275 268 263 260 260 262 265 268 270 269
283 283 283 283 283 283 283 283 283 284 283 283 282 282 281 282 283 285 286 287 288 288 289 288 288 287 286 286 287 287 287 287 287 287 287 287 287 287 288 288 289 290 291 292 293 293 293 293 293 294 294 295 296 297 297 298 299 299 300 302 304 305 306 307 308 307 306 305 304 301 296 290 285 279 275 271 267 266 267 269 272 276 281 284 284
281 281 281 279 278 278 278 279 280 281 282 283 283 283 282 281 281 281 282 284 286 286 286 286 286 285 285 285 284 284 284 284 284 285 285 285 285 285 285 286 286 287 288 289 291 291 292 292 292 292 291 291 291 291 291 292 293 294 296 298 299 301 302 303 304 305 305 303 301 296 291 286 284 282 281 279 278 278 279 280 283 286 289 292 293
278 279 280 281 280 278 277 276 277 277 279 281 281 282 283 284 284 286 287 288 288 287 287 288 288 287 285 285 284 284 283 283 283 283 283 283 284 284 284 284 284 285 286 287 288 288 289 289 290 290 290 290 290 290 290 290 289 289 290 291 292 293 295 295 295 296 296 295 294 292 289 288 288 289 289 288 289 290 291 292 293 295 296 298 299
282 282 282 281 282 282 281 280 279 278 278 277 276 276 276 275 278 282 286 287 288 289 291 292 292 291 291 291 290 289 288 287 287 286 285 285 284 284 284 285 285 284 284 285 285 286 287 288 288 289 289 289 289 289 289 289 288 288 289 289 289 288 288 288 288 286 286 286 286 286 286 287 288 290 291 291 293 295 296 297 298 297 296 294 294
283 283 282 281 283 284 284 284 283 282 280 278 277 277 277 277 276 275 274 275 277 279 283 285 287 289 292 292 291 292 292 292 291 290 289 288 288 288 288 288 288 288 288 288 288 288 288 288 288 288 288 287 287 287 286 286 286 286 287 288 288 287 287 287 285 284 283 282 282 282 282 283 284 285 287 288 289 291 292 293 294 294 292 290 287
278 278 279 281 283 283 282 282 282 281 282 282 281 279 278 278 276 273 271 273 273 271 274 279 282 286 288 288 286 286 288 289 290 290 289 288 289 290 290 290 291 293 294 293 293 292 290 290 290 289 288 287 286 286 286 285 285 284 284 285 285 284 285 285 285 284 284 283 282 282 282 282 282 283 284 285 286 287 288 289 289 289 288 287 286
277 276 276 278 278 275 275 276 276 276 277 278 278 277 275 274 274 273 274 274 273 271 272 276 281 287 290 289 289 289 290 291 292 291 288 286 285 285 285 287 290 292 294 294 294 294 292 292 291 291 290 288 287 286 286 285 285 285 285 284 284 283 283 283 283 284 285 284 284 284 284 283 283 283 283 284 286 287 287 288 288 287 287 287 286
278 276 275 275 274 273 271 272 273 273 272 272 271 271 271 271 273 274 272 272 273 274 272 272 275 281 284 285 288 291 294 296 297 296 295 294 293 291 290 291 292 293 292 291 290 289 289 289 289 288 287 286 287 287 286 285 285 285 284 284 285 285 284 283 282 282 282 282 283 284 285 284 284 283 283 283 283 284 284 285 285 285 286 286 286
278 278 277 276 274 274 274 274 274 274 273 271 270 271 271 271 271 271 270 269 270 271 270 270 272 273 274 276 280 282 284 289 292 295 297 299 299 299 300 301 301 301 299 295 292 291 292 291 290 288 286 286 287 288 287 288 288 288 286 286 286 286 285 285 285 283 282 281 281 282 283 283 284 284 283 282 281 281 282 282 282 283 283 284 284
281 282 284 283 279 277 277 276 274 274 275 276 276 275 275 276 276 276 273 270 266 263 263 268 272 271 270 271 273 274 276 281 284 286 289 290 292 295 299 300 301 301 300 299 300 301 302 301 298 296 294 293 292 290 289 289 290 291 290 290 289 288 287 288 288 287 285 284 283 282 282 282 283 283 282 281 280 281 281 281 281 282 282 282 282
283 284 285 284 282 279 276 273 273 274 276 275 274 275 275 276 277 277 275 272 268 265 262 263 267 270 271 270 270 272 275 278 279 280 280 282 284 288 292 294 295 295 296 299 301 302 302 304 303 301 300 300 298 295 292 291 290 290 290 291 291 290 290 290 290 289 287 286 285 284 283 283 283 283 282 281 281 281 282 282 282 282 282 282 282
284 283 282 281 280 278 275 273 274 275 274 273 274 276 276 274 271 270 269 268 267 266 264 262 264 270 274 274 273 274 277 279 279 278 277 278 280 283 287 288 289 291 295 298 298 297 299 301 302 301 301 302 301 300 299 298 295 292 290 288 288 289 289 290 290 290 290 289 288 285 284 283 283 283 283 282 282 281 281 282 282 282 282 282 282
282 280 279 276 275 274 275 274 274 273 274 276 277 275 271 268 266 266 267 268 267 268 267 265 265 270 274 276 276 277 278 278 279 278 278 279 280 282 283 283 284 287 291 294 294 294 296 298 298 298 298 299 300 300 301 299 296 292 289 287 286 286 287 288 289 290 291 292 290 288 286 284 283 283 282 282 282 282 283 283 283 283 283 283 283
282 280 278 277 277 277 278 277 276 275 276 276 276 273 270 269 268 265 264 263 263 267 269 268 266 268 271 274 276 278 278 277 277 278 278 278 278 277 278 280 282 285 288 290 291 292 294 295 295 295 296 296 296 297 298 297 294 291 289 288 287 286 286 287 289 290 290 290 290 291 290 288 285 283 282 281 281 281 282 282 283 283 283 283 282
285 283 282 281 282 281 281 282 282 284 283 278 273 273 272 269 267 267 264 260 259 264 271 272 271 272 273 274 275 276 277 277 276 276 275 275 274 274 276 279 283 286 288 290 291 292 293 293 294 294 294 294 294 294 294 294 292 291 289 289 289 288 287 287 287 288 288 288 288 290 291 290 288 286 284 282 281 281 282 282 283 283 283 282 282
288 287 285 286 286 286 286 284 282 283 284 279 275 276 275 269 268 271 271 268 268 271 273 274 274 274 274 274 275 275 275 275 276 276 275 275 273 273 276 280 284 288 290 292 294 294 294 293 293 294 293 293 293 293 293 293 291 290 289 290 292 292 290 288 286 285 284 284 285 287 289 290 289 287 285 284 283 283 283 284 284 284 284 283 282
289 288 288 288 286 284 285 286 285 285 284 279 275 278 279 277 273 271 269 267 268 270 271 272 275 276 275 275 275 275 276 276 276 276 275 275 276 277 279 283 286 289 291 292 293 293 293 293 295 296 296 297 296 295 294 294 292 291 291 293 294 293 291 290 289 287 286 285 285 285 286 287 287 285 283 282 282 282 283 283 284 284 284 284 283
290 288 288 290 288 284 282 283 285 286 285 282 280 279 278 278 278 275 269 265 264 265 266 267 269 272 274 275 275 275 277 277 278 277 277 278 280 282 284 286 289 291 291 289 288 288 290 293 295 297 298 298 298 296 295 294 293 293 294 295 294 293 292 292 292 291 290 289 287 286 285 284 284 283 283 282 281 281 281 281 282 283 284 284 284
290 288 286 287 289 290 290 290 288 286 285 285 285 282 281 281 279 277 276 275 274 271 270 269 269 270 272 274 276 277 278 278 279 281 282 284 285 285 286 288 290 291 290 288 288 288 290 292 294 295 297 297 296 295 295 294 294 295 296 296 295 295 295 296 295 294 293 291 290 288 287 285 284 283 283 282 282 282 282 282 282 283 283 284 284
292 290 287 287 290 292 292 292 292 289 288 289 287 283 282 284 285 284 286 287 284 280 278 280 280 278 276 277 280 282 282 282 283 283 283 285 287 288 288 289 289 289 290 291 292 292 293 293 294 295 295 295 295 295 295 295 296 296 296 295 296 297 298 297 296 295 294 293 291 290 289 287 286 285 284 283 283 283 283 284 284 284 284 285 284
Height
3209 3211 3212 3214 3215 3216 3218 3219 3220 3221 3221 3222 3223 3224 3225 3226 3226 3227 3227 3228 3228 3229 3229 3230 3230 3230 3231 3231 3231 3231 3231 3232 3232 3231 3232 3232 3232 3233 3233 3233 3233 3233 3234 3234 3234 3234 3234 3234 3234 3234 3234 3234 3234 3234 3234 3233 3233 3233 3232 3232 3232 3231 3231 3231 3230 3230 3230 3230 3229 3229 3228 3228 3227 3227 3226 3225 3225 3224 3223 3222 3221 3220 3219 3217 3216
3208 3209 3210 3211 3214 3215 3217 3218 3219 3220 3220 3221 3222 3223 3223 3224 3225 3226 3226 3227 3227 3228 3228 3229 3229 3229 3229 3230 3230 3230 3230 3230 3230 3230 3230 3230 3231 3232 3231 3232 3232 3232 3232 3232 3232 3232 3232 3233 3233 3233 3233 3233 3233 3233 3232 3232 3231 3231 3230 3230 3230 3230 3230 3229 3228 3228 3228 3228 3228 3227 3227 3227 3226 3225 3224 3224 3223 3223 3222 3221 3220 3219 3218 3217 3215
3206 3207 3208 3209 3212 3214 3215 3216 3218 3218 3220 3220 3221 3222 3222 3223 3223 3224 3225 3226 3226 3227 3227 3227 3227 3227 3228 3228 3228 3229 3228 3229 3229 3229 3229 3229 3230 3230 3230 3230 3230 3231 3231 3231 3231 3231 3231 3231 3231 3231 3231 3231 3231 3231 3231 3231 3230 3230 3229 3229 3229 3228 3228 3227 3227 3226 3226 3226 3226 3226 3225 3225 3224 3224 3223 3222 3222 3221 3221 3220 3219 3218 3217 3216 3214
3202 3204 3206 3208 3210 3212 3213 3214 3215 3216 3218 3219 3220 3220 3221 3221 3222 3223 3223 3224 3224 3225 3225 3226 3226 3226 3227 3227 3227 3227 3227 3227 3227 3227 3227 3228 3228 3228 3228 3229 3229 3229 3229 3229 3229 3229 3229 3229 3229 3229 3229 3229 3229 3229 3229 3229 3229 3229 3228 3227 3227 3227 3226 3226 3225 3225 3225 3224 3224 3224 3223 3223 3223 3222 3222 3221 3220 3220 3219 3219 3218 3217 3216 3215 3214
3200 3201 3204 3207 3208 3209 3210 3212 3213 3214 3215 3216 3218 3219 3220 3220 3221 3221 3222 3222 3223 3223 3223 3224 3224 3225 3225 3226 3226 3226 3226 3226 3226 3226 3226 3226 3226 3227 3227 3227 3227 3227 3227 3227 3227 3227 3227 3227 3227 3228 3228 3228 3228 3228 3228 3227 3227 3227 3227 3226 3226 3225 3225 3224 3224 3224 3223 3223 3223 3222 3222 3222 3221 3221 3220 3219 3219 3218 3218 3217 3216 3216 3214 3213 3212
3200 3200 3202 3205 3207 3208 3209 3209 3210 3210 3211 3213 3214 3216 3217 3219 3219 3220 3220 3220 3221 3221 3221 3222 3222 3223 3223 3224 3224 3224 3224 3223 3223 3224 3224 3224 3224 3225 3225 3224 3225 3225 3225 3225 3225 3225 3226 3225 3225 3226 3226 3226 3226 3226 3226 3226 3225 3225 3225 3225 3224 3224 3224 3223 3222 3222 3221 3221 3221 3221 3221 3220 3220 3219 3218 3217 3217 3217 3216 3216 3214 3214 3213 3212 3211
3200 3201 3202 3205 3206 3207 3207 3208 3208 3207 3208 3210 3211 3213 3215 3217 3217 3219 3219 3219 3219 3219 3219 3220 3220 3221 3221 3221 3222 3222 3221 3221 3221 3221 3221 3222 3222 3222 3222 3222 3223 3223 3223 3223 3223 3223 3223 3223 3223 3223 3223 3223 3224 3224 3223 3224 3224 3223 3222 3222 3221 3221 3221 3220 3220 3220 3220 3220 3220 3219 3219 3218 3217 3217 3216 3216 3217 3216 3215 3214 3212 3212 3211 3209 3209
3200 3201 3201 3203 3204 3205 3205 3206 3207 3207 3208 3210 3210 3211 3214 3214 3214 3215 3216 3217 3217 3217 3217 3218 3218 3218 3219 3219 3219 3219 3218 3219 3219 3218 3218 3219 3219 3219 3219 3219 3219 3220 3221 3221 3222 3222 3222 3221 3220 3220 3220 3221 3222 3222 3222 3222 3222 3221 3221 3220 3219 3219 3218 3218 3218 3217 3217 3218 3219 3218 3218 3217 3216 3216 3215 3216 3215 3214 3213 3212 3211 3210 3207 3205 3206
3199 3199 3200 3201 3201 3202 3202 3204 3206 3206 3207 3208 3208 3209 3212 3213 3213 3214 3214 3214 3214 3215 3216 3216 3216 3216 3216 3216 3216 3216 3216 3216 3216 3216 3217 3218 3218 3217 3217 3216 3217 3218 3218 3218 3219 3219 3219 3220 3219 3217 3217 3218 3219 3219 3220 3220 3219 3219 3219 3218 3217 3218 3218 3217 3217 3215 3214 3216 3217 3216 3216 3215 3214 3214 3213 3213 3211 3210 3210 3208 3208 3209 3206 3202 3203
3197 3198 3198 3198 3198 3200 3201 3201 3203 3204 3204 3205 3206 3207 3209 3211 3212 3213 3213 3212 3212 3212 3213 3214 3214 3214 3214 3215 3213 3212 3212 3213 3214 3215 3216 3216 3215 3215 3215 3216 3215 3214 3215 3215 3216 3217 3217 3217 3217 3216 3215 3216 3216 3216 3217 3217 3217 3216 3216 3215 3215 3215 3215 3215 3215 3214 3213 3214 3215 3214 3213 3213 3212 3211 3210 3210 3208 3207 3207 3206 3206 3208 3205 3202 3201
3194 3195 3195 3194 3194 3198 3199 3199 3200 3201 3201 3202 3203 3203 3205 3207 3208 3209 3210 3211 3211 3211 3211 3210 3211 3211 3211 3211 3208 3206 3208 3210 3211 3212 3213 3213 3213 3212 3213 3213 3212 3211 3211 3213 3214 3214 3214 3214 3214 3214 3214 3215 3215 3214 3213 3213 3214 3213 3213 3213 3212 3211 3211 3211 3212 3212 3211 3211 3211 3211 3211 3210 3209 3208 3206 3206 3205 3204 3205 3205 3205 3206 3203 3200 3199
3192 3192 3192 3190 3190 3194 3195 3195 3196 3196 3196 3198 3199 3199 3200 3203 3205 3206 3206 3206 3208 3210 3210 3209 3209 3208 3208 3207 3204 3203 3206 3208 3208 3209 3211 3211 3211 3210 3210 3210 3210 3208 3208 3209 3210 3211 3211 3211 3211 3211 3212 3214 3214 3213 3211 3210 3210 3210 3210 3210 3210 3209 3208 3208 3208 3208 3208 3206 3206 3207 3207 3207 3206 3205 3204 3203 3202 3202 3203 3202 3202 3202 3201 3198 3196
3189 3189 3189 3188 3188 3190 3190 3190 3192 3191 3191 3193 3194 3194 3195 3198 3200 3201 3201 3202 3203 3205 3207 3208 3208 3207 3205 3205 3204 3204 3205 3206 3207 3207 3208 3208 3208 3207 3207 3207 3207 3206 3205 3205 3206 3207 3207 3208 3208 3208 3209 3211 3211 3209 3208 3208 3207 3207 3207 3206 3207 3207 3206 3205 3205 3205 3204 3203 3202 3203 3204 3204 3203 3203 3202 3200 3199 3199 3200 3199 3198 3198 3197 3195 3193
3187 3187 3187 3187 3187 3187 3186 3187 3187 3187 3187 3187 3188 3189 3190 3192 3194 3196 3196 3197 3198 3200 3202 3203 3204 3204 3203 3202 3203 3203 3203 3204 3205 3205 3205 3205 3205 3205 3205 3204 3204 3203 3203 3203 3203 3203 3203 3204 3205 3204 3205 3207 3208 3206 3204 3204 3203 3203 3203 3203 3203 3203 3204 3203 3202 3201 3200 3199 3198 3199 3200 3200 3198 3199 3198 3197 3196 3196 3196 3196 3195 3194 3194 3192 3191
3185 3185 3185 3184 3184 3184 3184 3184 3184 3184 3184 3184 3184 3184 3184 3186 3188 3189 3190 3192 3194 3196 3197 3198 3199 3200 3200 3199 3199 3200 3201 3202 3203 3202 3202 3202 3202 3202 3202 3201 3201 3200 3201 3201 3201 3201 3200 3200 3200 3199 3199 3202 3203 3202 3200 3200 3199 3199 3198 3198 3199 3200 3200 3200 3199 3198 3197 3195 3194 3195 3196 3195 3194 3194 3194 3193 3193 3193 3193 3193 3192 3190 3190 3189 3188
3182 3182 3182 3181 3181 3181 3181 3181 3181 3181 3181 3181 3180 3180 3180 3181 3182 3184 3185 3187 3190 3192 3193 3194 3195 3195 3196 3196 3196 3197 3198 3199 3199 3200 3200 3199 3199 3199 3199 3198 3198 3198 3198 3199 3198 3198 3198 3197 3196 3196 3196 3197 3197 3196 3196 3195 3195 3194 3194 3194 3195 3196 3196 3197 3196 3195 3194 3192 3191 3191 3191 3191 3191 3190 3190 3190 3189 3189 3188 3188 3187 3186 3186 3186 3186
3180 3180 3179 3179 3179 3179 3179 3179 3178 3178 3179 3178 3178 3177 3178 3178 3178 3180 3182 3184 3186 3188 3189 3190 3191 3191 3192 3193 3194 3194 3195 3195 3196 3196 3196 3196 3196 3196 3195 3195 3195 3194 3195 3195 3194 3194 3194 3194 3194 3195 3194 3194 3193 3193 3192 3192 3191 3191 3190 3189 3190 3191 3191 3192 3191 3190 3189 3188 3187 3186 3187 3187 3187 3186 3186 3186 3185 3184 3182 3182 3183 3182 3181 3182 3182
3178 3178 3178 3177 3177 3177 3177 3177 3177 3177 3176 3176 3175 3175 3176 3176 3176 3177 3179 3181 3182 3184 3186 3187 3187 3188 3188 3189 3190 3191 3191 3191 3192 3192 3192 3192 3192 3192 3192 3192 3191 3189 3190 3191 3190 3190 3190 3190 3191 3192 3191 3190 3190 3189 3189 3188 3188 3187 3186 3185 3185 3185 3186 3186 3185 3184 3184 3184 3183 3183 3182 3182 3181 3181 3181 3181 3180 3179 3177 3178 3179 3178 3177 3177 3176
3176 3176 3176 3176 3176 3176 3176 3176 3176 3175 3174 3174 3174 3174 3175 3175 3175 3176 3177 3178 3179 3181 3183 3184 3184 3185 3185 3185 3186 3186 3187 3187 3187 3188 3189 3189 3189 3189 3189 3188 3187 3187 3187 3188 3187 3186 3186 3186 3188 3188 3187 3186 3186 3185 3185 3185 3184 3183 3183 3181 3181 3181 3181 3180 3180 3179 3178 3178 3178 3178 3176 3175 3175 3174 3175 3177 3176 3174 3172 3174 3174 3174 3173 3172 3171
3175 3175 3175 3175 3175 3175 3175 3175 3174 3173 3173 3173 3172 3173 3174 3174 3175 3175 3175 3176 3177 3178 3180 3180 3181 3182 3182 3182 3182 3182 3183 3184 3184 3184 3185 3186 3186 3186 3185 3185 3185 3185 3185 3185 3185 3185 3184 3184 3184 3184 3183 3182 3182 3181 3180 3180 3180 3179 3179 3178 3177 3177 3177 3176 3175 3174 3173 3172 3172 3171 3170 3170 3170 3169 3169 3169 3169 3167 3167 3168 3168 3168 3169 3167 3167
3174 3174 3174 3175 3175 3175 3175 3174 3174 3173 3173 3172 3172 3173 3174 3174 3174 3174 3175 3175 3176 3176 3177 3178 3178 3178 3178 3179 3179 3179 3180 3181 3181 3180 3181 3182 3183 3183 3182 3182 3182 3182 3182 3182 3182 3182 3182 3181 3181 3181 3180 3179 3178 3177 3176 3176 3176 3175 3175 3174 3173 3173 3173 3172 3171 3170 3169 3169 3168 3167 3166 3166 3166 3165 3163 3162 3162 3162 3162 3162 3162 3162 3163 3162 3162
3173 3173 3174 3174 3174 3174 3174 3174 3174 3173 3173 3173 3173 3173 3174 3174 3174 3174 3174 3175 3175 3175 3176 3176 3176 3175 3175 3176 3176 3177 3177 3177 3177 3177 3178 3179 3180 3180 3180 3180 3179 3179 3179 3179 3179 3179 3179 3178 3178 3177 3177 3176 3175 3174 3173 3172 3172 3171 3171 3170 3169 3168 3168 3168 3167 3166 3166 3165 3164 3163 3162 3161 3161 3160 3158 3157 3158 3158 3157 3156 3157 3157 3157 3157 3157
3172 3172 3173 3173 3173 3173 3173 3173 3173 3173 3173 3173 3173 3173 3174 3174 3174 3174 3174 3175 3175 3175 3174 3174 3174 3173 3173 3173 3174 3174 3174 3174 3174 3174 3175 3176 3176 3177 3177 3177 3177 3176 3176 3176 3176 3175 3175 3175 3175 3174 3174 3173 3172 3170 3169 3168 3168 3167 3167 3166 3165 3164 3164 3164 3163 3163 3162 3161 3160 3159 3158 3157 3156 3156 3154 3153 3153 3154 3152 3151 3151 3151 3151 3152 3153
3171 3171 3172 3172 3172 3173 3173 3173 3173 3173 3173 3173 3173 3173 3173 3173 3173 3174 3174 3174 3173 3173 3173 3173 3173 3172 3172 3172 3172 3171 3171 3171 3171 3171 3172 3173 3173 3174 3174 3174 3174 3174 3174 3173 3173 3173 3173 3172 3172 3172 3171 3170 3168 3167 3166 3165 3164 3164 3163 3163 3162 3161 3161 3160 3159 3159 3158 3157 3157 3156 3155 3154 3152 3151 3151 3150 3150 3149 3148 3147 3147 3147 3147 3147 3148
3170 3170 3170 3171 3171 3171 3172 3172 3172 3172 3172 3172 3172 3172 3172 3172 3172 3172 3172 3172 3172 3172 3172 3171 3171 3171 3171 3170 3170 3170 3170 3170 3170 3170 3170 3170 3170 3170 3171 3171 3171 3171 3171 3171 3171 3171 3171 3170 3170 3169 3168 3167 3165 3164 3163 3162 3161 3161 3160 3160 3159 3159 3158 3157 3156 3156 3155 3154 3154 3153 3151 3150 3149 3148 3147 3147 3146 3145 3145 3144 3143 3143 3144 3144 3144
3169 3169 3169 3170 3170 3170 3170 3170 3170 3170 3170 3170 3170 3170 3170 3170 3170 3170 3170 3170 3170 3170 3170 3170 3169 3169 3169 3169 3169 3169 3168 3168 3168 3168 3168 3168 3168 3168 3168 3168 3168 3168 3168 3168 3168 3168 3168 3167 3167 3166 3165 3164 3163 3161 3160 3159 3159 3158 3157 3157 3157 3156 3155 3154 3154 3152 3152 3151 3150 3149 3148 3147 3146 3146 3145 3144 3143 3143 3142 3141 3140 3140 3140 3140 3140
3169 3169 3169 3169 3169 3169 3169 3168 3168 3168 3168 3168 3168 3168 3168 3168 3168 3168 3168 3168 3168 3168 3168 3168 3168 3167 3167 3167 3167 3167 3167 3166 3166 3165 3165 3165 3165 3165 3165 3165 3165 3165 3165 3165 3164 3164 3164 3164 3163 3163 3161 3161 3160 3158 3157 3157 3157 3156 3154 3154 3154 3154 3152 3151 3150 3149 3148 3148 3147 3146 3145 3144 3143 3143 3142 3141 3141 3140 3139 3138 3137 3137 3137 3137 3136
3168 3168 3168 3168 3168 3167 3167 3167 3167 3167 3167 3167 3167 3167 3167 3167 3167 3167 3167 3167 3167 3167 3166 3166 3166 3166 3165 3165 3165 3165 3165 3164 3164 3163 3163 3163 3163 3163 3163 3163 3162 3162 3162 3162 3161 3161 3161 3160 3160 3159 3158 3158 3157 3156 3154 3154 3154 3153 3152 3151 3151 3151 3150 3148 3148 3146 3145 3144 3144 3143 3142 3141 3140 3140 3139 3138 3137 3137 3136 3135 3134 3134 3134 3133 3133
3167 3167 3167 3167 3167 3167 3166 3166 3166 3166 3166 3166 3166 3166 3166 3166 3166 3166 3166 3166 3166 3165 3165 3165 3165 3164 3164 3164 3163 3163 3163 3163 3162 3162 3162 3161 3161 3161 3160 3160 3160 3160 3160 3160 3159 3159 3159 3158 3158 3157 3156 3155 3154 3153 3152 3151 3151 3151 3150 3148 3147 3148 3147 3146 3145 3144 3142 3141 3141 3140 3139 3138 3137 3137 3136 3135 3134 3133 3133 3132 3132 3131 3131 3130 3130
3167 3167 3167 3167 3166 3166 3166 3166 3166 3166 3166 3166 3165 3165 3165 3165 3165 3165 3165 3165 3164 3164 3164 3164 3163 3163 3163 3162 3162 3162 3162 3161 3161 3161 3160 3160 3160 3159 3159 3158 3158 3158 3158 3158 3158 3157 3157 3156 3155 3155 3154 3153 3152 3151 3150 3150 3149 3149 3148 3147 3145 3145 3144 3143 3142 3141 3140 3139 3138 3137 3136 3135 3134 3133 3133 3132 3131 3131 3130 3130 3129 3129 3128 3128 3127
3167 3166 3166 3166 3166 3166 3165 3165 3165 3165 3165 3165 3165 3165 3164 3164 3164 3164 3164 3164 3163 3163 3163 3163 3162 3162 3161 3161 3161 3160 3160 3160 3159 3159 3159 3158 3158 3158 3157 3157 3157 3156 3156 3156 3155 3155 3155 3154 3153 3152 3151 3150 3150 3149 3148 3148 3147 3146 3146 3145 3143 3142 3141 3141 3140 3139 3138 3137 3135 3134 3133 3132 3132 3131 3130 3130 3129 3128 3128 3127 3127 3127 3126 3125 3125
3166 3165 3165 3165 3165 3165 3164 3164 3164 3164 3164 3164 3163 3163 3163 3163 3163 3163 3162 3162 3162 3162 3161 3161 3161 3160 3160 3160 3159 3159 3158 3158 3158 3157 3157 3157 3156 3156 3156 3155 3155 3154 3154 3153 3153 3153 3152 3151 3151 3150 3149 3148 3147 3147 3146 3145 3144 3143 3143 3142 3141 3140 3139 3138 3137 3136 3135 3134 3133 3132 3131 3131 3130 3129 3128 3128 3127 3127 3126 3126 3125 3125 3124 3123 3123
3164 3164 3163 3163 3163 3163 3163 3163 3163 3162 3162 3162 3162 3162 3161 3161 3161 3161 3161 3161 3160 3160 3159 3159 3159 3158 3158 3157 3157 3157 3156 3156 3155 3155 3155 3155 3154 3154 3153 3153 3153 3152 3152 3151 3151 3150 3149 3149 3148 3148 3147 3146 3145 3144 3143 3142 3142 3141 3140 3140 3139 3138 3137 3136 3135 3134 3133 3132 3131 3131 3130 3129 3128 3127 3127 3126 3125 3125 3124 3123 3123 3122 3121 3121 3120
3162 3162 3161 3161 3161 3161 3161 3160 3160 3160 3160 3160 3160 3159 3159 3159 3159 3159 3159 3158 3158 3157 3157 3157 3156 3156 3156 3155 3155 3154 3154 3153 3153 3153 3152 3152 3152 3151 3151 3150 3150 3150 3149 3149 3148 3147 3147 3146 3146 3145 3144 3143 3142 3141 3141 3140 3139 3138 3137 3137 3136 3135 3134 3133 3132 3131 3131 3130 3129 3128 3128 3127 3126 3125 3124 3123 3123 3122 3121 3121 3120 3119 3118 3117 3117
3160 3159 3159 3159 3158 3158 3158 3158 3158 3158 3158 3158 3157 3157 3157 3157 3157 3157 3156 3156 3156 3155 3154 3154 3154 3154 3153 3153 3152 3152 3151 3151 3150 3150 3150 3149 3149 3148 3148 3147 3147 3146 3146 3146 3145 3145 3144 3143 3143 3142 3141 3141 3140 3139 3138 3137 3136 3135 3134 3134 3133 3132 3131 3130 3129 3129 3128 3127 3126 3125 3125 3124 3123 3122 3121 3120 3120 3119 3118 3117 3117 3116 3115 3114 3114
3158 3157 3156 3156 3156 3156 3155 3155 3155 3155 3155 3155 3155 3155 3154 3154 3155 3154 3154 3154 3154 3153 3153 3152 3152 3151 3151 3150 3150 3149 3148 3148 3148 3147 3146 3146 3145 3145 3145 3144 3143 3143 3142 3142 3142 3141 3141 3140 3139 3139 3138 3137 3136 3135 3134 3134 3133 3132 3131 3130 3129 3129 3128 3127 3126 3125 3124 3123 3122 3122 3121 3120 3120 3119 3118 3117 3116 3116 3115 3114 3113 3112 3112 3111 3111
3156 3155 3155 3154 3154 3154 3153 3153 3153 3153 3153 3153 3153 3153 3152 3152 3152 3152 3152 3151 3151 3151 3151 3150 3150 3149 3148 3148 3147 3146 3146 3145 3145 3144 3143 3143 3143 3142 3141 3140 3140 3139 3139 3138 3138 3138 3137 3137 3136 3135 3134 3134 3133 3132 3131 3130 3129 3129 3128 3127 3126 3125 3125 3124 3123 3122 3121 3120 3119 3118 3117 3116 3116 3115 3114 3113 3112 3112 3111 3110 3109 3108 3107 3107 3106
3153 3153 3153 3153 3153 3152 3152 3151 3151 3151 3151 3151 3151 3151 3150 3150 3150 3150 3150 3149 3148 3148 3149 3148 3147 3146 3146 3144 3144 3143 3143 3142 3142 3141 3140 3139 3139 3139 3138 3137 3137 3136 3136 3135 3135 3134 3133 3132 3132 3131 3130 3129 3129 3128 3127 3126 3125 3125 3124 3123 3122 3121 3120 3120 3119 3118 3117 3116 3115 3114 3113 3112 3112 3111 3110 3109 3108 3107 3106 3105 3104 3103 3103 3102 3101
3150 3150 3150 3150 3150 3150 3150 3149 3149 3149 3149 3149 3148 3148 3148 3147 3147 3147 3147 3147 3146 3146 3146 3146 3145 3145 3143 3142 3141 3140 3140 3139 3139 3138 3136 3134 3134 3134 3134 3134 3133 3133 3133 3132 3131 3130 3129 3128 3128 3128 3126 3125 3125 3124 3123 3122 3121 3120 3119 3118 3118 3116 3115 3115 3114 3113 3113 3112 3111 3110 3109 3108 3107 3107 3106 3105 3104 3103 3102 3100 3099 3098 3098 3097 3096
3148 3147 3147 3148 3147 3147 3147 3147 3146 3146 3146 3146 3146 3145 3145 3144 3144 3144 3144 3144 3144 3144 3144 3144 3143 3142 3141 3139 3139 3138 3138 3138 3137 3136 3134 3132 3130 3129 3128 3128 3128 3127 3127 3126 3126 3126 3126 3125 3123 3123 3122 3121 3121 3120 3119 3117 3117 3115 3114 3113 3113 3111 3110 3109 3109 3108 3107 3107 3106 3105 3104 3103 3102 3102 3101 3100 3099 3098 3097 3095 3094 3094 3093 3092 3091
3145 3144 3144 3145 3145 3144 3144 3144 3143 3143 3143 3142 3142 3142 3142 3141 3141 3141 3141 3141 3141 3141 3141 3141 3140 3139 3138 3137 3137 3136 3136 3136 3135 3134 3133 3131 3128 3126 3125 3125 3123 3122 3122 3121 3121 3121 3121 3121 3119 3118 3117 3117 3116 3116 3114 3113 3112 3111 3109 3108 3107 3106 3105 3104 3103 3102 3101 3101 3101 3100 3099 3098 3097 3096 3095 3094 3094 3092 3091 3090 3089 3088 3088 3087 3086
3143 3142 3142 3142 3142 3142 3142 3141 3140 3140 3140 3139 3139 3139 3139 3138 3138 3138 3138 3138 3138 3137 3138 3138 3137 3135 3134 3135 3134 3133 3133 3133 3132 3132 3131 3129 3127 3126 3124 3123 3120 3119 3118 3119 3118 3117 3117 3117 3115 3113 3112 3111 3111 3111 3110 3109 3108 3106 3105 3104 3103 3101 3100 3100 3098 3097 3096 3095 3095 3095 3094 3093 3092 3091 3090 3089 3089 3088 3086 3085 3084 3083 3082 3081 3081
3141 3140 3140 3139 3139 3139 3138 3138 3137 3137 3137 3136 3136 3136 3136 3136 3136 3135 3135 3135 3135 3134 3134 3135 3134 3132 3131 3131 3131 3130 3130 3130 3129 3128 3128 3127 3126 3124 3123 3121 3118 3116 3116 3115 3114 3113 3113 3113 3111 3109 3107 3106 3106 3106 3105 3104 3103 3102 3101 3100 3099 3098 3096 3095 3094 3093 3092 3091 3090 3089 3088 3087 3086 3086 3085 3084 3083 3083 3082 3081 3080 3079 3078 3077 3076
3138 3137 3137 3136 3136 3135 3135 3135 3134 3134 3134 3133 3133 3133 3133 3133 3133 3132 3132 3132 3132 3131 3131 3131 3131 3130 3129 3128 3128 3127 3127 3127 3126 3125 3124 3124 3123 3122 3120 3117 3115 3114 3113 3112 3110 3109 3108 3108 3107 3106 3104 3103 3102 3101 3100 3100 3099 3097 3096 3096 3095 3093 3092 3091 3089 3089 3088 3086 3085 3084 3083 3082 3081 3080 3080 3079 3078 3077 3077 3076 3075 3074 3073 3072 3071
3135 3134 3133 3133 3132 3132 3132 3131 3131 3131 3131 3131 3130 3130 3130 3130 3130 3130 3129 3129 3128 3128 3128 3128 3128 3127 3126 3126 3125 3124 3124 3123 3122 3122 3121 3120 3119 3118 3116 3113 3111 3110 3110 3108 3106 3105 3104 3103 3102 3102 3101 3099 3098 3097 3096 3095 3094 3092 3091 3090 3089 3088 3087 3086 3085 3084 3083 3082 3080 3079 3078 3077 3076 3076 3075 3074 3073 3072 3072 3071 3070 3069 3068 3067 3067
3131 3131 3130 3129 3129 3129 3129 3128 3128 3127 3127 3128 3128 3128 3128 3128 3127 3126 3126 3125 3125 3125 3125 3125 3124 3124 3124 3123 3122 3121 3120 3119 3118 3118 3117 3116 3115 3114 3112 3110 3108 3107 3106 3104 3102 3101 3100 3099 3098 3097 3096 3095 3094 3093 3091 3090 3089 3087 3085 3084 3083 3083 3082 3082 3080 3079 3078 3076 3075 3074 3073 3072 3071 3071 3070 3069 3068 3068 3067 3066 3065 3064 3063 3062 3061
3128 3128 3127 3127 3126 3126 3125 3125 3125 3125 3125 3125 3125 3125 3124 3124 3124 3123 3123 3123 3123 3122 3122 3122 3121 3121 3121 3120 3119 3118 3116 3115 3115 3114 3113 3112 3111 3109 3108 3106 3105 3104 3102 3100 3099 3097 3095 3094 3093 3092 3092 3091 3089 3088 3086 3085 3083 3082 3080 3079 3078 3078 3077 3076 3075 3074 3072 3071 3070 3069 3069 3068 3067 3066 3065 3064 3064 3063 3062 3061 3060 3059 3058 3057 3057
3125 3125 3124 3124 3123 3123 3123 3123 3122 3122 3122 3122 3122 3122 3121 3121 3120 3120 3120 3120 3120 3119 3119 3118 3118 3118 3117 3116 3115 3114 3113 3112 3111 3110 3109 3107 3106 3105 3104 3103 3102 3100 3099 3097 3095 3093 3091 3089 3088 3087 3087 3086 3085 3083 3082 3080 3078 3076 3075 3075 3074 3073 3071 3070 3069 3068 3067 3066 3065 3064 3064 3063 3062 3061 3060 3060 3059 3058 3057 3056 3055 3054 3054 3053 3052
3122 3122 3122 3121 3121 3121 3120 3120 3120 3120 3120 3119 3119 3119 3118 3118 3118 3117 3117 3117 3116 3116 3115 3115 3115 3114 3113 3112 3111 3111 3110 3108 3107 3106 3105 3103 3102 3101 3100 3099 3098 3097 3095 3094 3091 3089 3087 3085 3084 3082 3082 3081 3080 3078 3077 3075 3073 3072 3071 3070 3069 3067 3066 3065 3064 3063 3062 3061 3060 3059 3059 3058 3057 3057 3056 3055 3054 3053 3052 3051 3050 3050 3049 3048 3047
3119 3119 3119 3119 3119 3119 3118 3118 3118 3118 3117 3117 3117 3116 3116 3115 3115 3115 3114 3113 3113 3113 3112 3111 3111 3110 3109 3108 3107 3107 3106 3105 3104 3103 3101 3100 3099 3097 3096 3094 3093 3092 3090 3089 3087 3086 3084 3082 3080 3079 3078 3076 3075 3074 3072 3070 3069 3068 3067 3066 3064 3063 3062 3061 3060 3059 3058 3057 3056 3055 3054 3053 3053 3052 3051 3050 3049 3048 3048 3047 3046 3045 3044 3044 3043
3117 3117 3117 3116 3117 3117 3116 3116 3116 3116 3115 3114 3114 3114 3113 3113 3112 3112 3111 3110 3110 3110 3109 3107 3107 3106 3106 3104 3103 3103 3102 3101 3100 3099 3097 3095 3094 3093 3092 3090 3089 3087 3085 3084 3083 3082 3080 3078 3077 3075 3074 3072 3071 3069 3068 3066 3065 3064 3063 3061 3060 3059 3058 3057 3056 3055 3054 3053 3052 3051 3050 3049 3048 3048 3047 3046 3045 3044 3043 3042 3042 3041 3040 3040 3039